Wind_Speed
14 17 19 20 21 23 26 28 30 32 33 33 33 34 35 37 40 43 46 47 48 48 48 48 47 46 43 41 40 39 37 36 34 34 33 31 30 30 28 26 25 24 22 21
16 19 21 23 24 26 29 30 31 32 33 34 36 38 40 43 45 48 49 50 50 50 50 50 50 48 46 43 41 39 37 36 33 32 32 30 29 28 26 24 22 21 19 18
17 19 22 25 26 27 28 29 30 32 34 37 40 44 46 48 50 53 54 54 54 53 52 52 52 50 48 45 42 40 38 36 34 32 31 29 28 26 24 22 21 20 18 16
22 23 25 27 27 28 28 30 31 33 37 40 44 47 50 53 55 58 59 59 59 57 56 55 55 53 51 48 44 42 39 37 35 32 30 28 27 25 23 21 20 19 17 15
28 29 29 30 30 32 34 36 36 38 41 45 48 51 54 57 60 62 63 63 63 63 62 60 58 57 54 51 47 43 40 38 36 33 30 28 26 24 22 21 19 18 17 15
32 34 34 34 34 36 40 42 42 44 47 51 54 58 60 62 63 65 66 67 67 67 66 65 62 60 57 54 50 46 42 39 37 34 32 29 26 24 22 20 19 17 16 14
35 36 38 39 39 41 44 46 49 52 55 58 62 64 67 69 70 71 72 72 73 73 71 69 67 63 61 57 54 49 44 41 37 35 33 30 27 25 22 20 19 17 15 13
37 39 40 42 44 46 48 51 54 57 60 63 66 69 71 73 75 76 77 77 76 74 72 70 68 66 63 59 55 51 47 42 38 36 34 32 29 26 23 21 19 16 15 13
38 40 42 45 47 49 52 55 58 61 64 67 71 73 76 77 78 78 77 75 72 70 67 64 62 60 58 57 55 52 49 45 41 37 34 32 31 28 24 22 19 17 15 13
40 42 44 47 49 52 55 59 63 67 70 73 76 78 79 79 77 73 68 63 60 56 53 51 51 51 51 51 52 52 51 48 45 40 37 34 33 30 26 23 20 18 16 15
42 44 46 49 53 57 61 65 69 71 74 76 78 77 75 70 63 56 50 47 45 44 43 43 42 42 43 45 48 50 50 48 46 41 39 36 34 32 28 25 22 20 19 18
43 47 51 55 59 63 67 70 73 75 75 73 72 67 58 51 46 42 41 40 39 39 39 38 38 38 38 39 42 46 48 48 46 42 39 38 36 34 31 27 25 22 21 20
48 53 57 62 66 69 72 74 75 74 70 65 57 50 45 42 40 39 38 38 39 38 38 38 37 36 35 34 36 41 45 46 45 42 39 40 39 36 33 30 27 25 23 22
55 60 64 68 71 74 75 74 70 64 57 50 45 41 39 39 39 39 39 39 39 39 38 37 35 33 32 32 33 35 40 43 42 41 40 40 40 38 35 32 29 27 25 24
61 65 69 73 74 74 71 66 59 52 45 41 39 37 36 37 38 39 40 40 41 41 40 38 35 32 31 30 31 32 36 40 41 41 40 40 40 39 37 34 31 29 27 25
66 70 73 75 74 70 64 57 52 46 40 37 35 35 36 38 39 40 41 43 43 43 41 38 35 33 31 30 29 30 34 38 39 40 40 39 40 39 38 36 32 29 27 25
71 74 76 76 72 65 58 52 47 41 37 35 35 36 38 40 41 43 44 44 44 42 40 38 35 32 30 28 28 29 33 37 39 39 39 39 40 39 37 36 33 30 28 26
73 74 74 70 65 58 52 46 41 38 35 35 37 38 41 43 45 46 46 45 44 43 40 37 34 29 27 26 27 29 33 37 39 39 38 39 39 38 37 36 34 32 29 26
72 71 67 62 57 52 47 42 38 35 35 37 38 41 45 47 48 48 47 46 44 41 37 34 30 26 24 24 26 29 33 37 38 38 38 40 39 39 38 37 35 32 29 26
68 65 60 56 51 46 41 37 35 34 36 39 41 44 46 48 48 48 47 44 41 37 32 29 25 22 21 23 26 30 34 36 37 38 38 40 39 38 37 37 35 32 28 25
64 60 56 51 45 38 35 33 33 35 38 41 44 47 48 49 49 47 45 41 36 32 28 24 20 18 19 23 27 31 34 35 37 38 38 38 38 37 37 36 35 32 28 26
60 56 51 46 39 32 30 31 34 37 40 43 46 48 49 48 47 44 42 38 33 29 23 17 13 16 20 24 28 33 35 35 35 36 37 37 37 37 36 35 34 31 28 26
56 51 46 41 34 29 29 32 35 38 42 45 47 48 47 46 44 41 38 34 29 22 14 7 11 16 21 26 31 35 35 35 35 34 34 34 35 35 35 34 33 31 29 27
51 46 42 37 31 28 29 32 35 39 43 45 46 46 45 42 39 38 35 29 22 13 4 4 12 18 24 29 34 35 35 33 33 33 31 31 31 33 34 34 32 30 28 26
48 43 38 33 29 28 30 33 37 40 43 44 45 44 41 39 37 34 30 23 16 8 6 11 17 22 26 31 34 34 33 33 33 31 29 27 26 28 30 31 30 29 27 25
44 40 36 31 30 31 33 36 39 42 44 44 43 40 38 36 33 29 24 19 13 10 12 16 20 24 28 32 34 34 33 33 33 30 27 25 24 25 27 27 28 27 26 24
41 37 32 28 27 29 32 35 39 42 43 43 40 37 35 33 30 26 22 17 15 14 16 19 22 25 29 32 33 33 33 33 31 28 26 24 23 24 25 26 26 26 25 23
Wind_Direction
297 292 292 293 292 290 288 288 288 290 292 297 300 301 299 298 297 296 296 298 299 299 300 301 302 303 303 303 305 307 309 310 311 311 307 303 301 300 299 298 298 298 298 297
298 295 297 296 296 295 292 291 291 292 293 296 297 297 296 295 294 293 293 293 294 295 295 296 297 298 299 300 301 303 305 306 306 307 306 301 300 299 298 298 298 298 298 300
305 301 300 298 301 299 296 294 292 291 291 292 291 290 290 289 289 290 291 292 292 292 292 293 294 294 295 296 297 298 300 301 301 302 302 298 296 296 294 294 295 298 299 299
308 307 309 310 310 308 303 298 295 292 290 288 287 288 290 290 290 291 292 292 293 292 291 291 291 291 291 292 292 293 293 294 295 296 295 293 290 290 289 289 290 292 296 295
317 316 315 313 312 309 304 299 299 296 294 292 290 290 289 289 289 290 291 291 291 290 290 289 288 288 287 287 287 287 287 287 287 288 287 285 282 282 282 282 284 285 288 289
319 317 314 310 309 306 302 301 301 296 293 290 290 289 289 289 289 288 288 289 288 288 287 286 285 284 282 281 281 280 279 279 281 280 277 276 273 273 273 273 276 278 279 281
314 310 307 307 304 301 297 296 295 293 293 293 292 293 293 293 292 292 291 290 289 288 288 286 284 281 278 276 274 272 270 269 272 271 268 266 263 262 263 264 265 267 268 268
306 304 301 301 299 297 296 296 295 295 295 294 294 294 294 293 293 293 292 292 291 290 288 287 284 280 276 271 267 264 261 259 261 262 260 257 253 252 254 254 254 254 255 254
303 301 301 301 301 301 300 299 298 297 296 296 295 295 295 295 295 295 295 294 294 293 291 289 285 280 273 267 261 256 252 250 250 251 251 249 245 243 243 243 242 241 240 238
306 305 305 304 304 303 302 301 301 300 300 299 298 298 298 298 298 298 297 297 297 295 293 291 286 280 273 263 255 248 244 243 243 242 242 241 237 235 234 233 231 230 228 225
309 309 309 308 307 306 306 305 304 302 301 300 299 299 299 299 299 298 297 297 297 298 297 296 293 284 275 264 252 244 239 237 235 234 233 232 231 228 226 224 222 221 220 217
313 314 313 311 310 309 308 306 304 303 302 302 302 303 303 302 301 300 300 300 299 299 299 298 295 289 281 267 252 242 235 232 231 230 227 226 224 222 218 217 216 215 215 214
318 317 315 314 314 312 309 308 307 307 308 308 308 307 306 306 306 306 305 303 302 301 300 299 296 291 284 271 255 244 234 229 227 226 223 221 219 216 213 212 211 211 211 211
321 319 318 317 315 313 312 312 313 313 312 310 309 307 306 307 308 308 307 305 302 301 301 299 296 293 286 273 258 244 233 226 223 221 221 217 214 211 208 207 207 207 208 209
323 321 320 318 316 316 316 317 316 316 313 311 309 308 308 309 310 309 308 306 303 302 300 297 292 288 282 274 259 243 231 224 219 217 216 213 211 207 204 204 205 205 206 207
324 323 321 320 319 320 321 321 320 319 316 315 314 313 313 312 312 311 310 308 306 304 300 296 291 283 278 269 256 240 227 221 217 214 212 209 207 204 202 202 203 204 205 207
326 325 323 322 323 323 324 323 321 321 320 319 318 317 317 315 315 314 312 309 307 305 301 295 290 280 274 263 250 235 223 216 213 209 207 205 203 201 200 199 201 203 204 207
327 326 324 324 325 324 324 323 321 322 322 321 321 320 319 318 317 315 313 311 308 304 299 293 288 278 268 256 241 229 218 211 208 205 202 200 199 198 198 198 199 201 204 206
327 326 325 325 325 325 324 323 323 324 325 324 322 322 321 321 319 318 316 314 311 306 299 292 286 275 261 245 230 219 211 205 203 201 198 196 197 197 197 196 198 201 203 207
327 326 326 326 326 326 325 324 325 327 327 325 325 324 324 323 322 320 319 317 313 308 301 291 280 267 249 228 214 207 202 199 197 197 196 194 195 195 196 196 198 201 204 208
328 328 328 328 328 328 326 326 328 329 329 328 328 328 326 325 324 323 322 321 317 311 304 292 273 250 224 208 200 195 192 191 191 192 192 192 192 193 194 196 198 201 206 212
330 329 330 330 330 330 330 330 330 331 331 331 331 330 329 328 328 327 326 325 321 314 305 286 250 217 202 193 189 185 184 184 185 187 188 189 191 192 194 196 197 201 208 214
331 331 332 333 333 333 334 334 333 334 335 335 335 334 333 332 333 332 331 330 327 323 309 264 207 193 186 181 178 177 179 181 183 182 184 187 190 193 195 197 199 201 207 215
334 334 335 335 334 334 335 336 336 337 338 339 339 338 337 338 338 339 340 340 339 339 328 179 172 171 169 170 170 171 174 178 179 178 180 183 188 193 195 195 197 201 207 213
337 337 337 336 335 336 337 339 340 340 341 342 343 343 343 343 343 346 349 352 359 22 92 136 149 155 158 161 163 166 170 173 173 174 176 179 183 188 190 192 196 199 202 206
339 339 339 339 338 339 340 341 342 343 344 347 348 349 350 352 354 357 2 10 29 69 105 126 139 146 152 156 159 163 167 169 171 171 172 175 179 182 185 187 190 192 194 196
339 339 339 339 338 339 341 343 345 347 349 351 353 355 359 2 6 11 20 34 57 84 107 123 135 143 149 154 157 161 164 167 168 169 170 171 174 177 179 180 181 182 185 189
Height
5850 5847 5845 5843 5841 5839 5835 5832 5829 5826 5822 5820 5818 5815 5811 5807 5803 5798 5792 5787 5782 5776 5772 5768 5764 5760 5757 5753 5748 5743 5739 5734 5729 5724 5719 5715 5712 5708 5705 5702 5699 5696 5693 5690
5846 5843 5840 5838 5835 5832 5829 5825 5822 5819 5816 5813 5809 5805 5801 5796 5791 5786 5781 5776 5771 5766 5761 5756 5752 5748 5745 5742 5738 5734 5730 5726 5721 5717 5713 5709 5706 5703 5700 5697 5694 5692 5689 5686
5843 5839 5836 5833 5830 5826 5822 5818 5816 5812 5809 5804 5799 5794 5789 5784 5779 5773 5768 5763 5758 5753 5748 5744 5739 5735 5732 5730 5727 5724 5720 5717 5713 5710 5706 5702 5700 5697 5694 5692 5690 5688 5685 5683
5837 5834 5830 5827 5822 5818 5814 5810 5807 5803 5799 5794 5788 5782 5775 5770 5764 5758 5752 5746 5741 5737 5733 5729 5725 5721 5719 5716 5715 5712 5709 5707 5704 5701 5698 5695 5693 5691 5689 5687 5686 5684 5683 5681
5829 5825 5822 5819 5813 5808 5804 5800 5797 5792 5786 5780 5774 5769 5763 5755 5748 5741 5735 5729 5724 5719 5715 5712 5708 5705 5703 5702 5701 5699 5698 5696 5694 5692 5690 5688 5686 5685 5683 5682 5681 5680 5679 5678
5821 5816 5812 5811 5806 5799 5794 5788 5785 5778 5772 5766 5759 5753 5747 5740 5732 5725 5718 5711 5706 5701 5696 5692 5689 5687 5685 5685 5685 5685 5684 5683 5683 5682 5681 5679 5678 5678 5677 5676 5676 5675 5675 5674
5813 5808 5803 5799 5794 5789 5785 5779 5771 5763 5756 5749 5741 5733 5726 5718 5711 5703 5696 5690 5684 5678 5674 5670 5666 5665 5664 5665 5666 5667 5669 5669 5670 5671 5670 5670 5670 5670 5670 5670 5670 5670 5671 5671
5805 5799 5796 5788 5782 5777 5771 5763 5755 5747 5739 5731 5723 5714 5706 5697 5689 5681 5673 5666 5659 5653 5649 5644 5639 5638 5639 5641 5643 5647 5650 5653 5656 5658 5659 5659 5660 5662 5663 5664 5664 5665 5666 5667
5796 5791 5783 5776 5770 5763 5756 5748 5740 5731 5722 5713 5704 5694 5685 5675 5667 5658 5649 5641 5634 5628 5623 5618 5613 5611 5611 5615 5619 5624 5630 5635 5639 5643 5646 5648 5650 5653 5655 5657 5658 5660 5661 5663
5785 5779 5772 5765 5758 5750 5741 5732 5723 5712 5702 5691 5680 5670 5661 5651 5643 5634 5626 5618 5611 5605 5600 5596 5591 5587 5586 5589 5594 5600 5608 5615 5621 5626 5631 5635 5639 5643 5646 5649 5652 5654 5656 5659
5775 5768 5761 5753 5744 5735 5725 5714 5703 5692 5680 5668 5657 5648 5639 5630 5622 5614 5607 5601 5594 5588 5583 5579 5574 5570 5567 5568 5572 5579 5587 5596 5604 5610 5616 5622 5628 5633 5638 5642 5645 5648 5650 5653
5765 5757 5749 5740 5729 5718 5707 5695 5683 5671 5659 5648 5635 5624 5617 5610 5603 5597 5592 5587 5581 5576 5570 5566 5561 5557 5553 5552 5554 5560 5568 5577 5586 5594 5602 5609 5616 5623 5628 5633 5637 5641 5644 5648
5753 5744 5734 5723 5712 5699 5687 5674 5660 5647 5635 5624 5615 5606 5599 5594 5588 5583 5578 5573 5568 5563 5558 5553 5549 5545 5542 5540 5541 5545 5552 5561 5570 5579 5588 5596 5604 5612 5619 5625 5629 5634 5638 5642
5740 5729 5718 5706 5693 5679 5664 5651 5639 5627 5617 5607 5600 5594 5588 5582 5577 5571 5566 5561 5555 5550 5546 5541 5537 5534 5531 5529 5530 5533 5539 5547 5556 5565 5575 5584 5593 5602 5609 5616 5622 5627 5632 5636
5726 5714 5701 5687 5673 5659 5645 5632 5621 5612 5603 5596 5589 5583 5577 5571 5566 5560 5554 5548 5543 5538 5533 5529 5525 5523 5520 5519 5520 5523 5528 5535 5544 5554 5563 5573 5583 5592 5600 5608 5615 5620 5625 5630
5712 5698 5684 5669 5654 5641 5628 5616 5606 5598 5591 5585 5579 5573 5567 5561 5555 5549 5542 5536 5530 5524 5520 5516 5513 5511 5509 5509 5511 5514 5519 5526 5535 5544 5554 5563 5573 5583 5592 5600 5608 5614 5619 5624
5695 5681 5665 5650 5637 5625 5614 5604 5595 5587 5581 5575 5569 5563 5557 5550 5543 5537 5530 5523 5516 5510 5505 5501 5499 5498 5497 5498 5501 5505 5510 5518 5527 5536 5546 5555 5566 5575 5584 5593 5601 5608 5613 5619
5678 5662 5647 5633 5621 5611 5603 5594 5586 5579 5573 5566 5560 5554 5546 5539 5531 5523 5516 5508 5502 5496 5490 5486 5485 5485 5485 5487 5491 5496 5503 5511 5520 5529 5539 5549 5559 5568 5578 5587 5594 5601 5607 5613
5664 5649 5636 5624 5612 5602 5593 5585 5578 5572 5566 5559 5552 5544 5536 5528 5518 5510 5501 5493 5486 5480 5475 5472 5471 5471 5474 5477 5482 5488 5495 5504 5513 5524 5533 5543 5553 5562 5572 5580 5588 5595 5602 5607
5652 5639 5626 5615 5605 5595 5586 5578 5572 5566 5559 5552 5544 5535 5526 5516 5506 5497 5487 5479 5471 5464 5461 5458 5458 5460 5462 5467 5473 5481 5490 5499 5509 5519 5528 5539 5548 5558 5567 5575 5583 5590 5597 5602
5641 5628 5617 5606 5597 5588 5580 5573 5566 5560 5553 5545 5535 5525 5515 5505 5495 5484 5475 5467 5459 5453 5449 5447 5447 5450 5454 5460 5468 5476 5486 5496 5506 5516 5525 5535 5545 5554 5563 5571 5578 5585 5591 5597
5631 5619 5609 5598 5590 5583 5576 5569 5562 5554 5547 5538 5528 5517 5506 5495 5485 5474 5465 5455 5449 5443 5439 5437 5439 5443 5449 5456 5464 5474 5485 5495 5504 5514 5523 5533 5542 5551 5559 5567 5574 5581 5587 5592
5623 5611 5601 5592 5584 5577 5571 5565 5557 5550 5541 5531 5520 5509 5498 5487 5476 5466 5457 5448 5440 5434 5432 5432 5435 5440 5446 5454 5463 5474 5484 5494 5504 5513 5522 5531 5540 5548 5556 5564 5571 5577 5583 5587
5616 5605 5595 5587 5580 5574 5568 5562 5554 5545 5536 5526 5515 5503 5491 5481 5471 5461 5451 5443 5436 5431 5430 5431 5434 5440 5447 5455 5465 5475 5486 5495 5504 5513 5522 5530 5538 5546 5553 5560 5567 5573 5579 5584
5609 5599 5591 5583 5577 5571 5565 5558 5550 5541 5532 5522 5511 5500 5488 5478 5468 5459 5450 5443 5437 5433 5432 5434 5439 5444 5451 5459 5469 5479 5488 5497 5506 5514 5522 5530 5537 5544 5551 5558 5564 5570 5576 5580
5604 5595 5587 5580 5574 5568 5561 5554 5546 5537 5528 5518 5508 5498 5488 5478 5468 5459 5452 5445 5441 5439 5439 5442 5446 5451 5458 5465 5474 5483 5492 5500 5509 5516 5524 5531 5537 5544 5550 5556 5562 5568 5573 5578
5600 5592 5585 5580 5574 5567 5560 5553 5544 5535 5525 5516 5506 5498 5488 5480 5471 5463 5457 5452 5449 5448 5449 5451 5455 5460 5466 5473 5480 5488 5497 5505 5513 5520 5526 5532 5539 5544 5550 5556 5561 5567 5572 5577